Location: Rowland
(34.5359°N, 79.2929°W)
Time: 16:19:55
(UTC+00:00)

A-11 Canister half - Pass Details

Date: 06 October 2022
Orbit: 1515 x 1684 km, 47.2° (Epoch: 06 December)

Event Time Altitude Azimuth Distance (km) Brightness Sun altitude
Rises 02:24:05 0° 264° (W) 4,838 12.2 -42.5°
Reaches altitude 10° 02:27:28 10° 271° (W) 3,828 11.6 -43.1°
Enters shadow 02:36:37 46° 341° (NNW) 2,022 9.6 -44.7°
